YAOGAN-36 03C

导读

YAOGAN-36 03C(遥感三十六号03组C星)是中国于北京时间2022年11月27日08时,在西昌卫星发射中心,通过长征二号丁运载火箭送入预定轨道的遥感卫星。该卫星由中国航天科技集团八院抓总研制,属于中国遥感卫星系列,运行在近地点481千米、远地点512千米,倾角35°的轨道上,主要将用于开展空间遥感探测,服务科学试验、国土资源普查等领域,是中国遥感卫星网络布局的重要组成部分。

Basic Information
目录编号:
54376
目录名称:
YAOGAN-36 03C
国际标识:
2022-160E
轨道中心:
EARTH
卫星名称:
YAOGAN-36 03C
卫星全名:
--
卫星状态:
在轨 (已飞行1386 天)
发射日期:
2022-11-27 UTC
国别 :
中国 (CN)
星等 :
--
This satellite is enrolled in the Space Conjunction Data Service (SCDS) and the current flight risk assessment level is: No High Risk
Orbit Information
数据来源 国际轨道数据 AOE轨道数据
星历时间 2026-09-13T09:12:24+0800
4小时前
查看轨道信息
2026-09-10T05:00:00+0800
3天前
查看轨道信息
半长轴 6874.556km 6874.279km
偏心率 0.0007954 0.0007948
轨道倾角 35.009° 35.009°
近地点辐角 114.027° 85.772°
升交点赤经 147.020° 166.994°
平近点角 246.128° 113.935°
近地点 490.95km 490.678km
远地点 501.888km 501.606km
周期 94.542分钟 94.537分钟
每日圈数 15.231261 15.232181
Detailed Information
使用方式:
暂无
2D Orbit Map
3D Orbit Map
Orbit Altitude Analysis Chart
Orbit Inclination Analysis Chart
Orbit Comprehensive Analysis Chart
View Comprehensive Chart
Conjunction Data List
Event ID Objects TCA Miss Dist (km) Collision Risk Probability Collision Risk Index (CRI) Action
CDM_260906-171005-437606-667721
AE5RC (66677)
2026-09-06T
17:10:22+0000
2.578 km
极远距离
1.560213E-6 低风险 0.39
Miss Distance Evolution Trend with All Objects
Collision Probability Evolution Trend with All Objects